This is the latest recevied weather packets stored in our database for station/object W7TJC. If no packets are shown the sender has not sent any weather packets the latest 10 day(s).
| Time | Temp. | Humidity | Pressure | Rain* | Wind** | Luminosity | Snow |
|---|---|---|---|---|---|---|---|
| 1777677986 | 21.67° C | 55% | 1015.9 hPa | 0 mm | - | 44 W/m² | - |
| 1777677684 | 22.22° C | 58% | 1015.5 hPa | 0 mm | - | 46 W/m² | - |
| 1777677381 | 22.22° C | 57% | 1015.8 hPa | 0 mm | - | 55 W/m² | - |
| 1777677080 | 21.67° C | 56% | 1015.9 hPa | 0 mm | - | 57 W/m² | - |
| 1777676778 | 22.22° C | 56% | 1015.8 hPa | 0 mm | - | 55 W/m² | - |
| 1777676476 | 22.22° C | 56% | 1015.9 hPa | 0 mm | - | 47 W/m² | - |
| 1777676173 | 22.22° C | 55% | 1016.1 hPa | 0 mm | - | 47 W/m² | - |
| 1777675869 | 22.78° C | 54% | 1016 hPa | 0 mm | - | 41 W/m² | - |
| 1777675566 | 22.78° C | 54% | 1015.8 hPa | 0 mm | - | 41 W/m² | - |
| 1777675263 | 22.78° C | 54% | 1016 hPa | 0 mm | - | 50 W/m² | - |
| 1777674960 | 22.78° C | 55% | 1016 hPa | 0 mm | - | 57 W/m² | - |
| 1777674656 | 23.33° C | 55% | 1016.1 hPa | 0 mm | - | 52 W/m² | - |
| 1777674374 | 23.89° C | 50% | 1016.3 hPa | 0 mm | - | 73 W/m² | - |
| 1777674050 | 23.33° C | 54% | 1016.1 hPa | 0 mm | - | 147 W/m² | - |
| 1777673746 | 23.89° C | 52% | 1016.2 hPa | 0 mm | - | 66 W/m² | - |
| 1777673444 | 23.89° C | 52% | 1016.3 hPa | 0 mm | - | 69 W/m² | - |
| 1777673141 | 23.89° C | 50% | 1016.4 hPa | 0 mm | - | 58 W/m² | - |
| 1777672838 | 25° C | 45% | 1016.2 hPa | 0 mm | - | 60 W/m² | - |
| 1777672534 | 25° C | 45% | 1016.3 hPa | 0 mm | - | 184 W/m² | - |
| 1777672229 | 25° C | 44% | 1016.4 hPa | 0 mm | - | 437 W/m² | - |
| 1777671925 | 25° C | 45% | 1016.3 hPa | 0 mm | - | 471 W/m² | - |
| 1777671621 | 24.44° C | 46% | 1016.4 hPa | 0 mm | - | 471 W/m² | - |
| 1777671318 | 24.44° C | 47% | 1016.3 hPa | 0 mm | - | 414 W/m² | - |
| 1777671014 | 23.89° C | 46% | 1016.6 hPa | 0 mm | - | 439 W/m² | - |
| 1777670710 | 24.44° C | 45% | 1016.6 hPa | 0 mm | - | 572 W/m² | - |
* Rain latest hour (hover to see other rain measurements)
** Current wind speed in m/s (hover to see current wind gust speed)